Torna al catalogo

STARLINK-32028

AttivoComunicazioniVLEO
NORAD 60095·PAYLOAD·🇺🇸 United States

Lanciato Jun 23, 2024 da Cape Canaveral Space Force Station

Loading…

Prossimi Passaggi (prossime 24 ore)

TLE

AggiornatoSource: CelesTrak SupGP

Epoca: Sep 14, 2026, 22:35 UTC

1 60095C 24117E   26257.94145833  .00022977  00000+0  67840-3 0  2575
2 60095  53.1567 235.5501 0001352  93.1370  39.2458 15.34400350    11

Traccia STARLINK-32028 in tempo reale con AllMySat

Download on the App Store